National Oceanic Atmosphere Administration National Weather Service Headquarters National Weather Service Headquarters
NOAA logo WFO Anchorage Scalable transition graphic NWS logo
Transition from title bar to navgation bar   Aviation Weather 23 AKDT 
blankspace Home   |   Mobile   |   Social Media   |   Mesonet   |   Surface Map   |   Radar   |   Submit Storm Reports   |   News =07 GMT 

LocalForecast by City, St or Zip Code

spacer

Forecasts/Products
  Public
  Forecast Discussion
    - With Glossary
  Aviation
  Marine
  Hydrology(RFC)
  Rivers & Lakes AHPS
  Ice Desk
  TV Weather
  Fire Weather
  Avalanche
  Travel 511
  Graphical
  xml logo RSS Feeds
  Marine FTPMail

spacer

Data
  Mesonet
  Model Graphics
  Local Model
  Observations
  Marine Obs
  Satellite/Radar
  Vent Factor
  Soaring Index
  Weather Links

spacer

Climate
  PAFC Climate
  Interactive Climate
  PAFC Records
  Local
  National
  More

spacer

Outreach
  About Us
  Community Outreach
  Kids' Page
  Tour/Speaker Request
  Weather Classroom
  Social Media

spacer

Reports
  COOP Observers
  Local Storm Reports
  Spotter Page
  Submit a Storm Report

spacer

Miscellaneous
  Archived Alaska Weather Stories
  Student Career Opportunities
  Research Papers

spacer

Print Friendly/
Low Bandwidth

  Public Forecasts
  Marine Forecasts

spacer

Contact Us
  mailto pafcweb

spacer

Facebook Follow the National Weather Service in Alaska on Twitter
USA.gov is the U.S. government's official web portal to all federal, state and local government web resources and services.


** Important notice for upcoming changes to NWS Anchorage web site ** Read more...
 ICAO ID:   AAWU Graphics

Internet access to TAFs and METAR observations is for planning purposes only. We can not guarantee the timeliness of internet products. Before flying please get a formal pilot briefing (1-800-992-7433) and ALWAYS file a Flight Plan!Pilot briefings are provided to licensed aircraft pilots, ONLY! Others may not use the above number to obtain weather information.

Check out the Key to TAFs and METARs for help with decoding the information.

A 12 hour summary of TAFs can be found here.

PANC TAF
PANC 290522Z 2906/3012 VRB04KT P6SM FEW100
     FM300200 17012G20KT P6SM VCSH SCT080 BKN120=


METAR PANC 290653Z 23009KT 10SM BKN100 BKN200 16/06 A2996 RMK AO2 SLP145
     T01560061=
METAR PANC 290653Z 23009KT 10SM BKN100 BKN200 16/06 A2996=
METAR PANC 290553Z 22005KT 10SM SCT100 16/06 A2995 RMK AO2 SLP142
     T01610056 10206 20156 56003=
METAR PANC 290553Z 22005KT 10SM SCT100 16/06 A2995=
METAR PANC 290453Z 26003KT 10SM FEW100 17/06 A2995 RMK AO2 SLP143
     T01720061=
METAR PANC 290453Z 26003KT 10SM FEW100 17/06 A2995=
METAR PANC 290353Z VRB04KT 10SM FEW100 SCT200 19/06 A2995 RMK AO2 SLP143
     T01940056=
METAR PANC 290353Z VRB04KT 10SM FEW100 SCT200 19/06 A2995=


National Weather Service
Anchorage Forecast Office
6930 Sand Lake Road
Anchorage, Ak 99502
(907) 266-5105 M-F/7-5pm
About Us
Career Opportunities
Glossary
Disclaimer
Privacy Policy
Credits
Alaska Weather Information Line:
1-800-472-0391